Regional Weather Roundup
Issued by NWS

Home | Current Version | Previous Version | Text Only | Print | Product List | Glossary Off
Versions: 1 2 3 4 5 6 7 8 9 10 11 12 13 14 15 16 17 18 19 20 21 22 23 24 25 26 27 28 29 30 31 32 33 34 35 36 37 38 39 40 41 42 43 44 45 46 47 48 49 50

000
ASUS43 KDMX 060007
RWRIA

WEATHER ROUNDUP FOR IOWA
NATIONAL WEATHER SERVICE DES MOINES IA
700 PM CDT TUE MAY 05 2015

NOTE: "FAIR" INDICATES FEW OR NO CLOUDS BELOW 12,000 FEET WITH NO
SIGNIFICANT WEATHER AND/OR OBSTRUCTIONS TO VISIBILITY.

* - THESE STATIONS ARE NOT NWS STATIONS...THUS NOT UNDER NWS
QUALITY CONTROL.  THEY ALSO DO NOT REPORT WEATHER SUCH
AS PRECIPITATION OR FOG.

IAZ001>003-012>014-020>022-031>034-043>046-060100-
   NORTHWEST IOWA

CITY           SKY/WX    TMP DP  RH WIND       PRES   REMARKS
CARROLL *      SUNNY     73  61  64 S7        30.02R
CHEROKEE *     CLOUDY    66  63  90 E17       30.01S
DENISON *      SUNNY     73  61  64 S10       29.98S
LE MARS *      MOSUNNY   75  57  53 S13       29.98S
ORANGE CITY *  MOSUNNY   66  61  82 E9G17     29.99S
SHELDON *      PTSUNNY   64  64 100 E17       30.00F
SIOUX CITY     CLOUDY    74  58  57 SE10      29.97S
6HR MIN TEMP:  63; 6HR MAX TEMP:  77; 6HR PCP: TRACE;

SPENCER        CLOUDY    62  60  93 E13       30.04F
6HR MIN TEMP:  59; 6HR MAX TEMP:  63; 6HR PCP: TRACE;

STORM LAKE *   PTSUNNY   66  64  94 E10       30.03S FOG
$$

IAZ055>058-069>071-079>083-090>094-060100-
   SOUTHWEST IOWA

CITY           SKY/WX    TMP DP  RH WIND       PRES   REMARKS
ATLANTIC *     SUNNY     75  59  57 S9        30.00F
AUDUBON *      SUNNY     73  61  64 S6        30.03R
CLARINDA *     SUNNY     75  61  60 SE3       30.01F
COUNCIL BLFS * SUNNY     73  63  68 SE14      29.99F
CRESTON *      SUNNY     73  61  64 SE8       30.03F
HARLAN  *      MOSUNNY   73  61  64 S10G17    30.03S
LAMONI         PTSUNNY   77  58  51 S6        30.03F
6HR MIN TEMP:  73; 6HR MAX TEMP:  79;

RED OAK *      SUNNY     73  63  68 SE8       29.99F
SHENANDOAH *   SUNNY     75  63  64 SE7       29.99F
$$

IAZ047>049-059>061-072>074-084-060100-
   CENTRAL IOWA

CITY           SKY/WX    TMP DP  RH WIND       PRES   REMARKS
AMES           PTSUNNY   67  64  90 E12       30.05S FOG
6HR MIN TEMP:  63; 6HR MAX TEMP:  76; 6HR PCP:  0.06;

ANKENY *       SUNNY     75  63  64 SE6       30.03F
CHARITON *     MOSUNNY   75  61  60 SE7       30.04S
DES MOINES     CLOUDY    77  60  55 SE7       30.03S
6HR MIN TEMP:  70; 6HR MAX TEMP:  80; 6HR PCP:  0.02;

GRINNELL*      PTSUNNY   72  64  78 E13       30.07S
KNOXVILLE *    SUNNY     77  59  53 S3        30.03F
MARSHALLTOWN   CLOUDY    65  62  90 E16       30.06F FOG
6HR MIN TEMP:  65; 6HR MAX TEMP:  74;

PELLA *        PTSUNNY   76  64  65 CALM      30.05F
PERRY *          N/A     73  64  73 SE7       30.03S
$$

IAZ004>006-015-016-023>025-035-036-060100-
   NORTH CENTRAL IOWA

CITY           SKY/WX    TMP DP  RH WIND       PRES   REMARKS
ALGONA *       CLOUDY    57  57 100 E15       30.07F FOG
CLARION *      CLOUDY    61  61 100 E14G21    30.07F FOG
ESTHERVILLE    CLOUDY    58  57  97 E14       30.05F
6HR MIN TEMP:  56; 6HR MAX TEMP:  59; 6HR PCP:  0.01;

FORT DODGE *   CLOUDY    64  61  88 E17       30.06S
MASON CITY     CLOUDY    55  54  96 E12       30.12S
6HR MIN TEMP:  54; 6HR MAX TEMP:  56; 6HR PCP:  0.04;

FOREST CITY *  CLOUDY    54  54 100 E12       30.11S FOG
IOWA FALLS *   CLOUDY    61  59  94 E12       30.10S FOG
$$

IAZ007>011-017>019-026>030-037>042-050>054-066-060100-
   NORTHEAST IOWA

CITY           SKY/WX    TMP DP  RH WIND       PRES   REMARKS
CEDAR RAPIDS   CLOUDY    63  61  93 E16       30.10R FOG
6HR MIN TEMP:  62; 6HR MAX TEMP:  68;

CHARLES CITY * CLOUDY    55  55 100 E13G18    30.13S
CLINTON *      PTSUNNY   61  55  82 E16       30.15S
DECORAH *      CLOUDY    54  54 100 E10       30.15S
DUBUQUE        CLOUDY    57  55  93 NE12      30.15F
6HR MIN TEMP:  54; 6HR MAX TEMP:  57; 6HR PCP: TRACE;

MONTICELLO *   CLOUDY    59  59 100 E9        30.14R
OELWEIN *      CLOUDY    57  57 100 E14       30.13F FOG
WATERLOO       CLOUDY    59  57  93 E14       30.11F FOG
6HR MIN TEMP:  56; 6HR MAX TEMP:  60;

$$

IAZ064-065-067-068-078-060100-
   EAST CENTRAL IOWA

CITY           SKY/WX    TMP DP  RH WIND       PRES   REMARKS
DAVENPORT      CLOUDY    64  59  83 E15       30.12S HAZE
6HR MIN TEMP:  64; 6HR MAX TEMP:  69;

IOWA CITY      CLOUDY    68  63  84 NE10      30.11R HAZE
6HR MIN TEMP:  66; 6HR MAX TEMP:  71;

MT. PLEASANT * MOSUNNY   76  61  59 S5        30.07S
MUSCATINE *    MOSUNNY   72  64  78 E9G15     30.09R
QUAD CITIES    PTSUNNY   67  61  81 E15       30.11R HAZE
6HR MIN TEMP:  67; 6HR MAX TEMP:  73;

$$

IAZ062-063-075>077-085>089-095>099-060100-
   SOUTHEAST IOWA

CITY           SKY/WX    TMP DP  RH WIND       PRES   REMARKS
BURLINGTON     MOSUNNY   77  60  55 S3        30.07S
6HR MIN TEMP:  77; 6HR MAX TEMP:  81;

FAIRFIELD *    SUNNY     77  61  57 E6        30.06F
FORT MADISON * SUNNY     77  63  61 CALM      30.08R
KEOKUK *       MOSUNNY   79  59  50 CALM      30.06S HX  80
OSKALOOSA *      N/A     75  62  64 CALM      30.05F
CENTERVILLE *  SUNNY     75  63  64 SE6       30.07S
OTTUMWA        PTSUNNY   77  60  55 CALM      30.04F
6HR MIN TEMP:  75; 6HR MAX TEMP:  80;

WASHINGTON *   SUNNY     73  73 100 NE10      30.07S FOG
$$

ABBREVIATIONS USED IN REMARKS
   TC - TEMPERATURES IN CELSIUS
  WCI - WIND CHILL INDEX
   HX - HEAT INDEX
  VSB - VISIBILITY
$$



USA.gov is the U.S. government's official web portal to all federal, state and local government web resources and services.